Date String (YYYY-MM-DD hh:mm:ss) UTC,Instrument flags,absolute air pressure of the measurement (hPa),sample flow rate (lpm),inlet stack bypass flow (lpm),air temperature of the measurement (°C),ambient temperature measured by the external sensor (°C),aerosol sample conditioner tube jacket temperature (°C),OPC LED temperature (°C),internal box temperature (°C),relative humidity of the measurement (%),span deviation,mass concentration of particles derived from Lorenz-Mie calculation of OPC scattering (μg/m³),mass concentration of particles derived from Lorenz-Mie calculation of OPC scattering (μg/m³),mass concentration of particles derived from Lorenz-Mie calculation of OPC scattering (μg/m³)
DateTimeUTC,F1_M11,P_M11,Q1_M11,Q2_M11,T1_M11,T2_M11,T3_M11,T4_M11,T5_M11,U1_M11,ZSPAN_M11,X2_M11,X0_M11,X1_M11
2024-01-21 07:00:00,SystemResetWarning,0822.0,5.01,000.00,019.1,018.4,000.0,027.5,020.4,16.9,0001.8,0015.35,0020.90,0014.61
2024-01-21 07:01:00,SystemResetWarning,0821.9,5.00,000.00,019.1,018.4,000.0,027.5,020.4,17.1,0001.9,0017.00,0022.75,0016.20
2024-01-21 07:02:00,SystemResetWarning,0822.0,5.00,000.00,019.1,018.4,000.0,027.5,020.4,17.1,0001.8,0018.12,0024.27,0017.25
2024-01-21 07:03:00,SystemResetWarning,0822.0,5.00,000.00,019.1,018.4,000.0,027.5,020.3,17.0,0001.9,0018.69,0025.62,0017.77
2024-01-21 07:04:00,SystemResetWarning,0822.0,5.00,000.00,019.1,018.4,000.0,027.5,020.3,16.9,0001.9,0019.46,0027.05,0018.48
2024-01-21 07:05:00,SystemResetWarning,0821.9,4.99,000.00,019.1,018.4,000.0,027.5,020.3,16.9,0001.9,0019.87,0027.29,0018.87
2024-01-21 07:06:00,SystemResetWarning,0821.9,5.01,000.00,019.1,018.4,000.0,027.5,020.3,16.8,0002.1,0019.32,0026.69,0018.35
2024-01-21 07:07:00,SystemResetWarning,0821.9,5.00,000.00,019.1,018.4,000.0,027.5,020.3,16.7,0002.1,0019.06,0026.25,0018.12
2024-01-21 07:08:00,SystemResetWarning,0821.9,5.00,000.00,019.1,018.4,000.0,027.5,020.3,16.5,0002.1,0018.76,0025.81,0017.86
2024-01-21 07:09:00,SystemResetWarning,0821.8,5.00,000.00,019.1,018.3,000.0,027.5,020.3,16.2,0001.7,0017.88,0024.57,0017.00
2024-01-21 07:10:00,SystemResetWarning,0821.8,5.00,000.00,019.1,018.3,000.0,027.5,020.3,16.1,0001.7,0016.62,0023.09,0015.74
2024-01-21 07:11:00,SystemResetWarning,0821.8,5.00,000.00,019.1,018.3,000.0,027.5,020.3,16.5,0002.2,0014.98,0021.18,0014.18
2024-01-21 07:12:00,SystemResetWarning,0821.8,5.00,000.00,019.1,018.3,000.0,027.5,020.3,16.5,0002.1,0013.29,0019.31,0012.52
2024-01-21 07:13:00,SystemResetWarning,0821.8,5.00,000.00,019.1,018.3,000.0,027.5,020.2,16.1,0002.0,0011.76,0017.42,0011.05
2024-01-21 07:14:00,SystemResetWarning,0821.8,5.00,000.00,019.1,018.2,000.0,027.5,020.1,16.1,0001.8,0010.36,0015.31,0009.75
2024-01-21 07:15:00,SystemResetWarning,0821.8,4.99,000.00,019.0,018.1,000.0,027.5,020.0,17.1,0001.8,0009.26,0013.14,0008.74
2024-01-21 07:16:00,SystemResetWarning,0821.7,4.99,000.00,019.0,018.1,000.0,027.5,020.0,17.5,0001.7,0008.25,0012.02,0007.78
2024-01-21 07:17:00,SystemResetWarning,0821.7,5.00,000.00,019.0,018.0,000.0,027.5,020.0,17.8,0001.4,0007.28,0010.84,0006.86
2024-01-21 07:18:00,SystemResetWarning,0821.7,5.00,000.00,019.0,018.0,000.0,027.5,020.0,17.3,0001.3,0006.60,0009.81,0006.23
2024-01-21 07:19:00,SystemResetWarning,0821.8,5.00,000.00,018.9,018.0,000.0,027.4,020.0,17.5,0001.7,0006.81,0010.00,0006.41
2024-01-21 07:20:00,SystemResetWarning,0821.8,5.01,000.00,018.9,018.0,000.0,027.4,020.0,17.6,0002.3,0007.78,0011.57,0007.37
2024-01-21 07:21:00,SystemResetWarning,0821.7,5.01,000.00,018.9,017.9,000.0,027.4,020.0,17.7,0002.4,0008.79,0013.70,0008.39
2024-01-21 07:22:00,SystemResetWarning,0821.8,5.01,000.00,018.9,017.9,000.0,027.4,020.0,17.9,0002.1,0009.79,0014.73,0009.37
2024-01-21 07:23:00,SystemResetWarning,0821.8,5.00,000.00,018.9,017.9,000.0,027.4,020.0,17.9,0002.1,0011.00,0016.31,0010.53
2024-01-21 07:24:00,SystemResetWarning,0821.8,4.99,000.00,018.9,017.9,000.0,027.4,020.0,17.8,0002.1,0012.46,0018.93,0011.92
2024-01-21 07:25:00,SystemResetWarning,0821.7,4.99,000.00,018.9,017.9,000.0,027.4,020.0,17.7,0001.9,0014.11,0021.71,0013.48
2024-01-21 07:26:00,SystemResetWarning,0821.8,4.99,000.00,018.9,017.9,000.0,027.4,020.0,17.8,0001.7,0015.67,0023.61,0014.96
2024-01-21 07:27:00,SystemResetWarning,0821.8,5.01,000.00,018.9,017.9,000.0,027.4,020.0,17.9,0002.1,0017.14,0025.30,0016.37
2024-01-21 07:28:00,SystemResetWarning,0821.7,5.01,000.00,018.9,017.9,000.0,027.4,020.0,17.9,0002.1,0018.62,0026.90,0017.78
2024-01-21 07:29:00,SystemResetWarning,0821.7,5.01,000.00,018.9,017.9,000.0,027.3,020.0,18.0,0001.9,0020.07,0029.08,0019.12
2024-01-21 07:30:00,SystemResetWarning,0821.7,5.00,000.00,018.9,017.9,000.0,027.3,020.0,18.0,0001.7,0020.88,0031.14,0019.87
2024-01-21 07:31:00,SystemResetWarning,0821.7,5.00,000.00,018.9,017.9,000.0,027.3,020.0,17.9,0001.3,0020.96,0031.14,0019.95
2024-01-21 07:32:00,SystemResetWarning,0821.7,5.00,000.00,018.9,017.9,000.0,027.3,020.0,17.9,0001.2,0021.02,0031.05,0020.00
2024-01-21 07:33:00,SystemResetWarning,0821.7,4.99,000.00,018.8,017.9,000.0,027.3,020.0,18.0,0001.3,0021.40,0032.21,0020.32
2024-01-21 07:34:00,SystemResetWarning,0821.7,5.00,000.00,018.8,017.9,000.0,027.3,020.0,18.0,0001.2,0021.92,0033.38,0020.79
2024-01-21 07:35:00,SystemResetWarning,0821.7,5.01,000.00,018.8,017.9,000.0,027.3,020.0,18.1,0001.3,0022.41,0033.10,0021.26
2024-01-21 07:36:00,SystemResetWarning,0821.7,5.00,000.00,018.8,017.9,000.0,027.3,020.0,18.2,0001.5,0022.20,0032.19,0021.05
2024-01-21 07:37:00,SystemResetWarning,0821.7,5.01,000.00,018.8,017.9,000.0,027.3,020.0,18.2,0001.8,0021.37,0031.61,0020.24
2024-01-21 07:38:00,SystemResetWarning,0821.6,5.00,000.00,018.8,017.9,000.0,027.3,020.0,18.2,0001.7,0020.47,0030.64,0019.38
2024-01-21 07:39:00,SystemResetWarning,0821.6,4.99,000.00,018.8,018.0,000.0,027.3,020.0,17.9,0001.5,0020.27,0030.82,0019.13
2024-01-21 07:40:00,SystemResetWarning,0821.7,5.00,000.00,018.8,018.0,000.0,027.3,020.0,16.9,0001.7,0019.49,0030.15,0018.39
2024-01-21 07:41:00,SystemResetWarning,0821.7,5.01,000.00,018.8,018.0,000.0,027.3,020.0,16.8,0001.7,0018.58,0028.02,0017.56
2024-01-21 07:42:00,SystemResetWarning,0821.7,5.00,000.00,018.8,018.0,000.0,027.3,020.0,16.9,0001.7,0017.49,0026.64,0016.50
2024-01-21 07:43:00,SystemResetWarning,0821.8,5.00,000.00,018.8,018.0,000.0,027.3,020.0,17.2,0001.7,0016.40,0025.07,0015.44
2024-01-21 07:44:00,SystemResetWarning,0821.7,5.00,000.00,018.8,018.0,000.0,027.3,020.0,17.5,0001.7,0015.49,0023.66,0014.60
2024-01-21 07:45:00,SystemResetWarning,0821.8,4.99,000.00,018.8,018.0,000.0,027.3,020.0,17.7,0001.8,0014.48,0021.90,0013.63
2024-01-21 07:46:00,SystemResetWarning,0821.8,4.99,000.00,018.8,018.0,000.0,027.3,020.0,17.8,0001.8,0013.62,0021.00,0012.80
2024-01-21 07:47:00,SystemResetWarning,0821.8,5.01,000.00,018.8,018.0,000.0,027.3,020.0,17.8,0001.4,0013.03,0020.36,0012.23
2024-01-21 07:48:00,SystemResetWarning,0821.8,5.00,000.00,018.8,018.0,000.0,027.3,020.0,17.6,0001.1,0013.01,0020.01,0012.23
2024-01-21 07:49:00,SystemResetWarning,0821.7,5.01,000.00,018.8,018.0,000.0,027.3,020.0,17.4,0000.7,0013.12,0021.26,0012.31
2024-01-21 07:50:00,SystemResetWarning,0821.8,5.00,000.00,018.8,018.0,000.0,027.3,020.0,17.5,0000.6,0012.43,0020.39,0011.70
2024-01-21 07:51:00,SystemResetWarning,0821.7,5.00,000.00,018.8,018.0,000.0,027.2,020.0,17.7,0000.7,0011.98,0019.72,0011.26
2024-01-21 07:52:00,SystemResetWarning,0821.8,4.99,000.00,018.8,018.0,000.0,027.2,020.0,17.9,0001.0,0011.81,0019.34,0011.08
2024-01-21 07:53:00,SystemResetWarning,0821.8,4.99,000.00,018.8,018.0,000.0,027.2,020.0,17.9,0001.3,0011.59,0019.09,0010.88
2024-01-21 07:54:00,SystemResetWarning,0821.9,5.01,000.00,018.8,018.1,000.0,027.2,020.0,17.9,0001.3,0011.40,0018.35,0010.72
2024-01-21 07:55:00,SystemResetWarning,0821.8,5.01,000.00,018.8,018.1,000.0,027.2,020.0,17.4,0001.2,0011.16,0018.00,0010.50
2024-01-21 07:56:00,SystemResetWarning,0821.8,5.01,000.00,018.8,018.1,000.0,027.2,020.0,17.4,0000.9,0010.69,0017.59,0010.07
2024-01-21 07:57:00,SystemResetWarning,0821.8,5.00,000.00,018.8,018.1,000.0,027.2,020.0,17.6,0000.4,0009.99,0016.44,0009.42
2024-01-21 07:58:00,SystemResetWarning,0821.8,5.00,000.00,018.8,018.1,000.0,027.2,020.1,17.7,0000.1,0009.31,0015.69,0008.77
2024-01-21 07:59:00,SystemResetWarning,0821.8,4.99,000.00,018.8,018.1,000.0,027.2,020.0,17.8,0000.7,0008.74,0014.79,0008.24
